Current weather by "City, St" or "zip code"  
 

Current Conditions: Ozona Municipal Airport, TX

Fair


88.0 F

Last Updated on Jul 3 2022, 2:30 pm CDT
Humidity: 38%
Wind Speed: S 10.4 G 23.0 mph
Barometer 30.07 in
Dewpoint: 59.0 F
Visibility: 10.00 mi
Precip: --
Heat Index: 87 F
Wind Chill: NA
Current conditions at:

Ozona Municipal Airport, TX (KOZA)

Lat: 30.7353 Lon: 101.203

Local Radar Image active severe weather and emergency alerts image image weather storm and storm spotter reports image weather observation monitoring service image
Local
Radar
Active
Alerts
Storm Reports Obs
Monitoring

Sign-up For Email & Text Message Weather Alert Notification Services



Advertise Here

Observation History for Ozona Municipal Airport, TX


Time Wind
(mph)
Vis
(mi)
Weather Precip (in) Temperature (F) Relative
Humidity
Wind
Chill
(F)
Heat
Index
(F)
Pressure
Air Dwpt altimeter
(in)
sea level
(mb)
Rmks
2:30 pm CDT S 10.4 G 23.0 10.00 Fair -- 88.0 59.0 38% NA 87 30.07 M
1:55 pm CDT S 17.3 G 24.2 10.00 Fair -- 88.0 59.0 38% NA 87 30.08 M
1:35 pm CDT S 13.8 10.00 Fair -- 86.0 57.2 38% NA 85 30.08 M
1:15 pm CDT S 12.7 G 24.2 10.00 Fair -- 86.0 59.0 40% NA 85 30.08 M
12:55 pm CDT S 15.0 G 27.6 10.00 Partly Cloudy -- 86.0 60.8 43% NA 86 30.09 M
12:35 pm CDT S 16.1 G 23.0 10.00 Partly Cloudy -- 86.0 60.8 43% NA 86 30.10 M
12:15 pm CDT S 16.1 G 26.5 10.00 Partly Cloudy -- 84.0 62.6 48% NA 85 30.10 M
11:55 am CDT S 17.3 G 25.3 10.00 Partly Cloudy -- 82.0 62.6 51% NA 83 30.10 M
11:35 am CDT S 15.0 G 21.9 10.00 Partly Cloudy -- 81.0 62.6 54% NA 82 30.11 M
11:15 am CDT S 18.4 G 31.1 10.00 Fair -- 81.0 62.6 54% NA 82 30.11 M
10:55 am CDT S 13.8 G 20.7 10.00 Partly Cloudy -- 79.0 62.6 58% NA NA 30.10 M
10:35 am CDT S 15.0 10.00 Fair -- 79.0 62.6 58% NA NA 30.11 M
10:15 am CDT S 17.3 G 21.9 10.00 Fair -- 81.0 62.6 54% NA 82 30.10 M
9:55 am CDT S 16.1 G 26.5 10.00 Fair -- 81.0 62.6 54% NA 82 30.09 M
9:35 am CDT S 16.1 G 26.5 10.00 Fair -- 79.0 60.8 54% NA NA 30.09 M
9:15 am CDT S 12.7 G 20.7 10.00 Fair -- 79.0 60.8 54% NA NA 30.08 M
8:55 am CDT S 9.2 G 26.5 10.00 Fair -- 77.0 62.6 61% NA NA 30.08 M
8:35 am CDT S 5.8 10.00 Fair -- 75.0 62.6 65% NA NA 30.08 M
8:15 am CDT S 5.8 10.00 Fair -- 73.0 62.6 69% NA NA 30.07 M
7:55 am CDT S 6.9 10.00 Fair -- 72.0 62.6 73% NA NA 30.06 M
7:35 am CDT S 4.6 10.00 Fair -- 72.0 62.6 73% NA NA 30.06 M
7:15 am CDT S 3.5 10.00 Fair -- 70.0 60.8 73% NA NA 30.06 M
6:55 am CDT SW 4.6 10.00 Fair -- 72.0 60.8 69% NA NA 30.06 M
6:35 am CDT S 9.2 10.00 Partly Cloudy -- 72.0 60.8 69% NA NA 30.06 M

Regional Weather Observation


Reagan County Airport, TX (KE41)

Partly Cloudy
90.0 F

Sonora, Sonora Municipal Airport, TX (KSOA)

Fair
86.0 F

San Angelo, Mathis Field, TX (KSJT)

Fair
93.0 F

Dryden - Terrell County Airport, TX (K6R6)

NULL
93.0 F

Midland, Midland International Airport, TX (KMAF)

Fair
92.0 F

Fort Stockton, Fort Stockton-Pecos County Airport, TX (KFST)

A Few Clouds
92.0 F

Advertise Here


Advertise Here